Regional Weather Roundup
Issued by NWS Cleveland, OH

Home | Current Version | Previous Version | Graphics & Text | Print | Product List | Glossary On
Versions: 1 2 3 4 5 6 7 8 9 10 11 12 13 14 15 16 17 18 19 20 21 22 23 24 25 26 27 28 29 30 31 32 33 34 35 36 37 38 39 40 41 42 43 44 45 46 47 48 49 50
000
ASUS41 KCLE 260300
RWRCLE
OHIO REGIONAL WEATHER ROUNDUP
NATIONAL WEATHER SERVICE WILMINGTON, OH
1100 PM EDT SUN SEP 25 2016

NOTE: "FAIR" INDICATES FEW OR NO CLOUDS BELOW 12,000 FEET WITH NO
SIGNIFICANT WEATHER AND/OR OBSTRUCTIONS TO VISIBILITY.

OHZ001>008-015>018-024>027-034-035-043-044-260400-
   NORTHWEST OHIO

CITY           SKY/WX    TMP DP  RH WIND       PRES   REMARKS
DEFIANCE       CLOUDY    66  54  65 E8        29.99F
FINDLAY        FAIR      69  50  50 SE8       30.00F
TOLEDO EXPRESS FAIR      61  56  83 E3        30.01F
TOLEDO EXEC    FAIR      61  56  83 E3        30.02F
LIMA           FAIR      67  60  78 S7        30.02F
$$

OHZ009>014-019>023-028>033-038-089-260400-
   NORTHEAST OHIO

CITY           SKY/WX    TMP DP  RH WIND       PRES   REMARKS
CLE-HOPKINS    FAIR      64  45  49 SE5       30.07F
CLE-LAKEFRONT  FAIR      67  45  45 SE6       30.04F
CUY CO. ARPT   CLEAR     63  48  59 E9        30.07F
LORAIN-ELYRIA  FAIR      60  47  61 S5        30.04F
ASHTABULA      FAIR      53  50  89 SE6       30.10F
AKRON-CANTON   FAIR      63  46  54 SE8       30.07F
WOOSTER        NOT AVBL
MANSFIELD      FAIR      64  49  57 SE7       30.05F
YOUNGSTOWN     FAIR      56  47  71 E8        30.08F
$$

OHZ042-051>053-060>062-070>072-077>081-260400-
  SOUTHWEST OHIO

CITY           SKY/WX    TMP DP  RH WIND       PRES   REMARKS
CINC-COVINGTON FAIR      72  65  78 S3        30.04S
CINC-LUNKEN    FAIR      67  67 100 CALM      30.03S FOG
HAMILTON       FAIR      66  63  90 CALM      30.03F
DAYTON         NOT AVBL
WRIGHT-PAT AFB FAIR      71  60  69 MISG      30.03F
DAYTON GENERAL FAIR      71  62  73 SE3       30.03F
WILMINGTON     FAIR      67  63  87 SE3       30.05S
$$

OHZ036-037-039>041-045>050-054>059-063>069-073>076-082>088-260400-
  CENTRAL AND SOUTHEAST OHIO

CITY           SKY/WX    TMP DP  RH WIND       PRES   REMARKS
COLUMBUS       FAIR      71  48  43 SE6       30.04S
OSU AIRPORT    FAIR      70  49  47 SE5       30.04F
BOLTON FIELD   NOT AVBL
RICKENBACK AFB NOT AVBL
NEWARK         FAIR      58  55  90 CALM      30.04F
MARION         FAIR      64  49  57 SE6       30.04F
LANCASTER      FAIR      63  54  72 S3        30.04F
ZANESVILLE     FAIR      60  51  72 CALM      30.05F
NEW PHILLY     FAIR      58  50  75 SE6       30.07F
$$




USA.gov is the U.S. government's official web portal to all federal, state and local government web resources and services.